Location: Unspecified
(43.4680°N, 87.1740°E)
Time: 21:47:50
(UTC+00:00)

NOSS 0 Rocket - Pass Details

Date: 05 August 2021
Orbit: 936 x 954 km, 70.0° (Epoch: 22 September)

Event Time Altitude Azimuth Distance (km) Brightness Sun altitude
Rises 18:02:53 0° 319° (NW) 3,631 7.7 -29.7°
Reaches altitude 10° 18:06:11 10° 303° (WNW) 2,678 6.7 -29.7°
Enters shadow 18:09:55 19° 265° (W) 2,106 5.7 -29.8°
